Station 42058 - Central Caribbean - 210 NM SSE of Kingston, Jamaica Image indicating link to RSS feed of recent meteorological observations for station 42058


Conditions at 42058 as of
(9:40 pm EDT on 07/22/2024)
0140 GMT on 07/23/2024:
     

Click on the graph icon in the table below to see a time series plot of the last five days of that observation.

5-day plot - Wind Direction Wind Direction (WDIR): E ( 80 deg true )
5-day plot - Wind Speed Wind Speed (WSPD): 21.4 kts
5-day plot - Wind Gust Wind Gust (GST): 27.2 kts
5-day plot - Atmospheric Pressure Atmospheric Pressure (PRES):29.87 in
5-day plot - Air Temperature Air Temperature (ATMP): 85.1 °F
5-day plot - Water Temperature Water Temperature (WTMP): 85.1 °F
5-day plot - Dew Point Dew Point (DEWP): 77.9 °F
5-day plot - Heat Index Heat Index (HEAT): 96.6 °F
5-day plot - Wind Speed at 10 Meters Wind Speed at 10 meters (WSPD10M): 23.3 kts
5-day plot - Wind Speed at 20 Meters Wind Speed at 20 meters (WSPD20M): 25.3 kts
5-day plot -  Wind Speed, Wind Gust and Atmospheric Pressure Combined plot of Wind Speed, Gust, and Air Pressure
Supplemental Measurements
Lowest 1-minute Pressure
Time (EDT)Pressure
9:40 pm29.87 in
Highest 1-minute Wind Speed
Time (EDT)5-day plot - 1-Minute Wind Speed WSPD 5-day plot - 1-Minute Wind Direction WDIR
9:38 pm 25.3 kts E ( 80 deg true )
Previous observations
TIME
(EDT)
5-day plot - Wind Direction
WDIR
 
5-day plot - Wind Speed
WSPD
kts
5-day plot - Wind Gust
GST
kts
5-day plot - Wave Height
WVHT
ft
5-day plot - Dominant Wave Period
DPD
sec
5-day plot - Average Wave Period
APD
sec
5-day plot - Mean Wave Direction
MWD
 
5-day plot - Atmospheric Pressure
PRES
in
5-day plot - Pressure Tendency
PTDY
in
5-day plot - Air Temperature
ATMP
°F
5-day plot - Water Temperature
WTMP
°F
5-day plot - Dew Point
DEWP
°F
5-day plot - Salinity
SAL
psu
5-day plot - Visibility
VIS
nmi
5-day plot - Tide (above MLLW)
TIDE
ft
2024-07-22 09:30 pm E 21.4 27.2----29.87- 85.1 85.1 78.3---
2024-07-22 09:20 pm E 21.4 25.3 7.9 75.4 E29.86- 85.1 85.1 78.1---
2024-07-22 09:10 pmENE 21.4 27.2 7.9-5.4 E29.86- 85.1 85.1 78.1---
2024-07-22 09:00 pm E 19.4 25.3----29.86+0.05 85.1 85.1 78.4---
2024-07-22 08:50 pmENE 21.4 25.3 6.9 85.3 E29.85- 85.3 85.1 78.3---
2024-07-22 08:40 pmENE 21.4 25.3----29.85- 85.3 85.1 78.1---
2024-07-22 08:30 pmENE 19.4 25.3----29.85- 85.3 85.1 78.3---
2024-07-22 08:20 pmENE 21.4 25.3 7.5 85.5 E29.84- 85.3 85.1 78.3---
2024-07-22 08:10 pmENE 21.4 25.3 7.5-5.5 E29.84- 85.3 85.1 78.3---
2024-07-22 08:00 pmENE 19.4 23.3----29.84+0.03 85.3 85.1 77.7---
2024-07-22 07:50 pmENE 21.4 25.3 7.5 75.4ESE29.83- 85.1 85.1 77.9---
2024-07-22 07:40 pmENE 21.4 27.2----29.83- 85.3 85.1 78.3---
2024-07-22 07:10 pmENE 21.4 25.3 7.2-5.3 E29.82- 85.3 85.1 78.4---
2024-07-22 07:00 pmENE 21.4 25.3----29.82+0.00 85.1 85.1 78.1---
2024-07-22 06:50 pmENE 21.4 25.3 7.5 85.5 E29.81- 85.3 85.1 78.1---
2024-07-22 06:40 pmENE 21.4 25.3 7.5-5.5 E29.81- 85.3 85.1 77.9---
2024-07-22 06:30 pmENE 19.4 25.3----29.81- 85.3 85.1 78.1---
2024-07-22 06:20 pmENE 21.4 25.3 7.5 75.4 E29.81- 85.3 85.1 77.7---
2024-07-22 06:10 pmENE 21.4 25.3 7.5-5.4 E29.81- 85.3 85.1 77.5---
2024-07-22 06:00 pmENE 21.4 25.3----29.80-0.02 85.3 85.1 77.7---
2024-07-22 05:50 pmENE 21.4 25.3 7.9 85.5 E29.81- 85.3 85.1 77.7---
2024-07-22 05:40 pmENE 21.4 25.3 7.9-5.5 E29.81- 85.3 85.1 78.1---
2024-07-22 05:30 pmENE 19.4 23.3----29.81- 85.3 85.1 78.1---
2024-07-22 05:20 pmENE 19.4 23.3 7.5 85.5 E29.81- 85.3 85.1 77.9---
2024-07-22 05:10 pmENE 19.4 25.3 7.5-5.5 E29.81- 85.5 85.1 77.5---
2024-07-22 05:00 pmENE 21.4 25.3----29.81-0.04 85.3 85.1 77.4---
2024-07-22 04:50 pmENE 21.4 25.3 7.9 85.6 E29.81- 85.3 85.1 77.7---
2024-07-22 04:40 pmENE 19.4 25.3----29.82- 85.5 85.1 78.3---
2024-07-22 04:30 pmENE 21.4 25.3----29.82- 85.3 85.1 77.5---
2024-07-22 04:20 pmENE 19.4 25.3 7.2 85.4 E29.82- 85.3 85.1 77.9---
2024-07-22 04:10 pmENE 21.4 25.3 7.2-5.4 E29.81- 85.3 85.1 77.9---
2024-07-22 04:00 pmENE 21.4 25.3----29.82-0.06 85.3 85.1 77.7---
2024-07-22 03:50 pmENE 21.4 23.3 7.9 75.6 E29.82- 85.3 85.1 77.9---
2024-07-22 03:40 pmENE 19.4 23.3----29.83- 85.3 85.1 78.1---
2024-07-22 03:30 pmENE 19.4 23.3----29.83- 85.3 85.1 78.1---
2024-07-22 03:20 pmENE 19.4 25.3 7.9 75.6 E29.83- 85.3 85.1 78.1---
2024-07-22 03:10 pmENE 19.4 23.3 7.9-5.6 E29.83- 85.3 85.1 78.3---
2024-07-22 03:00 pmENE 19.4 23.3----29.83-0.05 85.3 85.1 77.9---
2024-07-22 02:50 pmENE 21.4 23.3 7.2 75.5 E29.83- 85.3 85.1 77.7---
2024-07-22 02:40 pmENE 19.4 23.3 7.2-5.5 E29.84- 85.3 85.1 77.9---
2024-07-22 02:30 pm E 19.4 25.3----29.84- 85.3 85.1 77.7---
2024-07-22 02:20 pm E 21.4 25.3 7.5 75.6 E29.85- 85.1 85.1 77.4---
2024-07-22 02:10 pm E 19.4 23.3 7.5-5.6 E29.85- 85.3 85.1 77.9---
2024-07-22 02:00 pm E 19.4 23.3----29.85-0.03 85.3 85.1 77.7---
2024-07-22 01:50 pmENE 19.4 25.3 8.2 85.8 E29.86- 85.3 85.1 78.1---
2024-07-22 01:40 pmENE 19.4 21.4----29.87- 85.3 85.1 78.1---
2024-07-22 01:30 pm E 19.4 23.3----29.87- 85.3 85.1 77.7---
2024-07-22 01:20 pm E 19.4 23.3 8.2 75.6 E29.87- 85.3 85.1 77.7---
2024-07-22 01:10 pmENE 19.4 23.3 8.2-5.6 E29.88- 85.1 85.1 77.9---
2024-07-22 01:00 pmENE 19.4 23.3----29.88+0.00 85.3 85.1 78.1---
2024-07-22 12:50 pm E 19.4 23.3 7.9 85.5 E29.87- 85.1 84.9 77.7---
2024-07-22 12:40 pm E 19.4 23.3 7.9-5.5 E29.87- 85.1 84.9 77.9---
2024-07-22 12:30 pm E 19.4 23.3----29.88- 85.3 84.9 78.3---
2024-07-22 12:20 pm E 21.4 25.3 8.2 85.7 E29.88- 85.1 85.1 77.7---
2024-07-22 12:10 pmENE 19.4 23.3----29.88- 85.1 84.9 77.7---
2024-07-22 12:00 pm E 19.4 23.3----29.88+0.01 85.3 84.9 77.7---
2024-07-22 11:50 am E 19.4 25.3 8.2 85.7 E29.88- 85.3 84.9 77.9---
2024-07-22 11:40 am E 19.4 23.3----29.88- 85.3 84.9 77.9---
2024-07-22 11:30 am E 19.4 23.3----29.89- 85.1 84.9 77.5---
2024-07-22 11:20 am E 19.4 25.3 8.5 85.7 E29.89- 85.1 84.9 78.1---
2024-07-22 11:10 am E 19.4 23.3 8.5-5.7 E29.88- 85.1 84.9 78.1---
2024-07-22 11:00 am E 19.4 25.3----29.88+0.03 85.3 84.9 78.1---
2024-07-22 10:50 am E 21.4 25.3 8.5 85.7 E29.89- 85.1 84.9 77.9---
2024-07-22 10:40 amENE 21.4 25.3 8.5-5.7 E29.88- 84.9 84.9 78.3---
2024-07-22 10:30 amENE 21.4 25.3----29.88- 85.1 84.9 78.8---
2024-07-22 10:20 am E 21.4 25.3 8.5 85.9 E29.88- 84.9 84.9 78.3---
2024-07-22 10:10 amENE 19.4 25.3----29.88- 85.1 84.9 78.4---
2024-07-22 10:00 am E 19.4 23.3----29.88+0.04 85.1 84.9 78.3---
2024-07-22 09:50 am E 21.4 25.3 7.5 85.5 E29.88- 85.1 84.9 77.9---
2024-07-22 09:40 am E 21.4 25.3 7.5-5.5 E29.88- 85.1 84.9 77.9---
2024-07-22 09:30 am E 23.3 27.2----29.88- 84.9 84.9 77.5---
2024-07-22 09:20 am E 21.4 25.3 8.5 85.7 E29.88- 84.4 84.9 77.5---
2024-07-22 09:10 am E 23.3 27.2 8.5-5.7 E29.87- 84.9 84.9 77.0---
2024-07-22 09:00 am E 21.4 25.3----29.86+0.02 85.1 84.9 77.2---
2024-07-22 08:50 am E 21.4 23.3 8.2 75.6 E29.86- 84.9 84.9 76.8---
2024-07-22 08:40 am E 21.4 25.3 8.2-5.6 E29.86- 85.1 84.9 77.2---
2024-07-22 08:30 am E 21.4 27.2----29.86- 85.1 84.9 77.2---
2024-07-22 08:20 am E 21.4 27.2 8.2 85.6 E29.86- 85.1 84.9 76.8---
2024-07-22 08:10 am E 21.4 27.2 8.2-5.6 E29.85- 85.1 84.9 76.3---
2024-07-22 08:00 am E 23.3 27.2----29.85+0.02 85.1 84.9 76.5---
2024-07-22 07:50 am E 23.3 27.2 8.9 85.9 E29.85- 84.9 84.9 76.6---
2024-07-22 07:40 amENE 21.4 27.2----29.85- 84.9 84.9 76.6---
2024-07-22 07:30 amENE 21.4 27.2----29.85- 84.7 84.9 76.6---
2024-07-22 07:20 amENE 21.4 25.3 8.2 85.7 E29.85- 84.9 84.9 76.8---
2024-07-22 07:10 am E 23.3 27.2 8.2-5.7 E29.85- 84.7 84.9 76.1---
2024-07-22 07:00 am E 21.4 27.2----29.85+0.00 84.9 84.9 77.0---
2024-07-22 06:50 am E 23.3 29.1 7.9 85.6 E29.84- 84.9 84.9 76.5---
2024-07-22 06:40 amENE 23.3 27.2 7.9-5.6 E29.84- 84.7 84.9 76.8---
2024-07-22 06:30 am E 23.3 27.2----29.83- 84.7 84.9 76.6---
2024-07-22 06:20 am E 21.4 25.3 8.5 85.9 E29.84- 84.7 84.9 76.8---
2024-07-22 06:10 am E 21.4 25.3 8.5-5.9 E29.84- 84.7 84.9 77.2---
2024-07-22 06:00 am E 19.4 23.3----29.84+0.00 84.9 84.9 77.5---
2024-07-22 05:50 am E 23.3 27.2 8.5 75.7 E29.84- 84.7 84.9 76.8---
2024-07-22 05:40 am E 21.4 25.3 8.5-5.7 E29.84- 84.9 84.9 77.5---
2024-07-22 05:30 am E 23.3 27.2----29.83- 84.7 84.9 77.2---
2024-07-22 05:20 am E 23.3 29.1 8.9 85.8 E29.83- 84.6 84.9 77.5---
2024-07-22 05:10 am E 21.4 27.2 8.9-5.8 E29.83- 84.7 84.9 78.8---
2024-07-22 05:00 amENE 21.4 27.2----29.83-0.02 84.9 84.9 78.4---
2024-07-22 04:50 am E 23.3 27.2 8.9 85.8 E29.83- 84.7 84.9 77.7---
2024-07-22 04:40 am E 21.4 27.2----29.83- 84.7 84.9 77.9---
2024-07-22 04:30 am E 21.4 27.2----29.83- 84.6 84.9 78.3---
2024-07-22 04:20 am E 21.4 25.3 8.5 85.8 E29.83- 84.7 84.9 79.0---
2024-07-22 04:10 am E 21.4 27.2----29.84- 84.6 85.1 78.4---
2024-07-22 04:00 am E 21.4 27.2----29.84-0.04 83.8 84.9 78.3---
2024-07-22 03:50 am E 23.3 27.2 8.9 85.8 E29.84- 83.3 84.9 78.1---
2024-07-22 03:40 am E 23.3 29.1 8.9-5.8 E29.84- 85.1 85.1 77.9---
2024-07-22 03:30 am E 21.4 27.2----29.84- 84.9 84.9 78.3---
2024-07-22 03:20 am E 21.4 25.3 8.5 85.8ESE29.84- 84.9 85.1 78.6---
2024-07-22 03:10 amENE 21.4 25.3----29.84- 84.9 85.1 78.6---
2024-07-22 03:00 am E 21.4 27.2----29.85-0.03 84.9 84.9 78.4---
2024-07-22 02:50 am E 21.4 25.3 8.9 85.8 E29.85- 85.1 85.1 78.8---
2024-07-22 02:40 amENE 23.3 27.2 8.9-5.8 E29.85- 84.9 85.1 78.4---
2024-07-22 02:30 am E 21.4 27.2----29.85- 85.1 85.1 78.6---
2024-07-22 02:20 amENE 23.3 27.2 7.9 75.6 E29.85- 85.1 85.1 78.6---
2024-07-22 02:10 am E 23.3 27.2----29.85- 85.1 85.1 78.8---
2024-07-22 02:00 am E 21.4 27.2----29.86-0.03 85.1 85.1 78.6---
2024-07-22 01:50 am E 21.4 25.3 8.2 85.7ESE29.86- 85.3 85.1 79.2---
2024-07-22 01:40 amENE 21.4 27.2----29.87- 85.1 85.1 78.8---
2024-07-22 01:30 am E 21.4 25.3----29.87- 85.1 85.1 79.0---
2024-07-22 01:20 am E 23.3 27.2 9.2 85.8 E29.88- 85.1 85.1 78.6---
2024-07-22 01:10 am E 21.4 25.3 9.2-5.8 E29.88- 85.1 85.1 78.8---
2024-07-22 01:00 am E 21.4 27.2----29.88+0.00 85.3 85.1 78.6---
2024-07-22 12:50 am E 23.3 27.2 8.9 85.8 E29.88- 85.3 85.1 78.3---
2024-07-22 12:40 am E 23.3 27.2 8.9-5.8 E29.88- 85.3 85.1 78.4---
2024-07-22 12:30 am E 21.4 27.2----29.88- 85.3 85.1 78.4---
2024-07-22 12:20 am E 23.3 27.2 8.5 85.8 E29.88- 85.3 85.1 78.4---
2024-07-22 12:10 am E 25.3 29.1 8.5-5.8 E29.88- 85.3 85.1 77.9---
2024-07-22 12:00 am E 23.3 29.1----29.88+0.02 85.3 85.1 77.9---
2024-07-21 11:50 pm E 23.3 27.2 8.9 86.0 E29.88- 85.3 85.1 78.3---
2024-07-21 11:40 pm E 23.3 29.1----29.88- 85.3 85.1 77.9---
2024-07-21 11:30 pm E 23.3 29.1----29.88- 85.3 85.1 78.1---
2024-07-21 11:20 pm E 23.3 29.1 9.8 86.1ESE29.88- 85.3 85.1 78.1---
2024-07-21 11:10 pm E 23.3 31.1 9.8-6.1ESE29.88- 85.5 85.1 78.4---
2024-07-21 11:00 pm E 23.3 27.2----29.89+0.04 85.5 85.1 77.9---
2024-07-21 10:50 pm E 23.3 29.1 8.2 75.6ESE29.89- 85.5 85.1 77.5---
2024-07-21 10:40 pm E 25.3 31.1 8.2-5.6ESE29.89- 85.5 85.1 77.2---
2024-07-21 10:30 pmENE 23.3 29.1----29.89- 85.3 85.1 77.5---
2024-07-21 10:20 pm E 23.3 29.1 8.9 85.9ESE29.88- 85.5 85.1 78.4---
2024-07-21 10:10 pm E 23.3 29.1----29.88- 85.6 85.1 77.7---
2024-07-21 10:00 pmENE 23.3 29.1----29.88+0.03 85.5 85.1 77.7---
2024-07-21 09:50 pmENE 23.3 29.1 8.5 85.9 E29.88- 85.3 85.1 77.7---

Detailed Wave Summary
for 42058 as of
(9:10 pm EDT on 07/22/2024)
0110 GMT on 07/23/2024:

These wave data are displayed in rounded times.

     

Click on the graph icon in the table below to see a time series plot of the last five days of that observation.

5-day plot - Significant Wave Height Significant Wave Height (WVHT): 7.9 ft
5-day plot - Swell Height Swell Height (SwH): 0.7 ft
5-day plot - Swell Period Swell Period (SwP): 14.8 sec
5-day plot - Swell Direction Swell Direction (SwD):NNE
5-day plot - Wind Wave Height Wind Wave Height (WWH): 7.9 ft
5-day plot - Wind Wave Period Wind Wave Period (WWP): 7.1 sec
5-day plot - Wind Wave Direction Wind Wave Direction (WWD): E
5-day plot - Wave Steepness Wave Steepness (STEEPNESS): STEEP
5-day plot - Average Wave Period Average Wave Period (APD): 5.4 sec
Previous observations
TIME
(EDT)
5-day plot - Wave Height
WVHT
ft
5-day plot - Swell Height
SwH
ft
5-day plot - Swell Period
SwP
sec
5-day plot - Swell Direction
SwD
 
5-day plot - Wind Wave Height
WWH
ft
5-day plot - Wind Wave Period
WWP
sec
5-day plot - Wind Wave Direction
WWD
 
5-day plot - Wave Steepness
STEEPNESS
 
5-day plot - Average Wave Period
APD
sec
2024-07-22 08:40 pm 6.9 1.0 12.1 S 6.9 7.7 E STEEP 5.3
2024-07-22 08:10 pm 7.5 1.3 11.4 NE 7.5 7.7 E STEEP 5.5
2024-07-22 07:40 pm 7.5 0.0-- 7.5 7.1 ESE STEEP 5.4
2024-07-22 07:10 pm 7.2 1.0 12.9 E 7.2 6.7 EVERY_STEEP 5.3
2024-07-22 06:40 pm 7.5 2.0 12.9 E 7.2 7.7 E STEEP 5.5
2024-07-22 06:10 pm 7.5 0.0-- 7.5 6.7 EVERY_STEEP 5.4
2024-07-22 05:40 pm 7.9 0.0-- 7.9 7.7 E STEEP 5.5
2024-07-22 05:10 pm 7.5 1.6 12.1ESE 7.5 7.7 E STEEP 5.5
2024-07-22 04:40 pm 7.9 1.0 12.1 E 7.9 7.7 E STEEP 5.6
2024-07-22 04:10 pm 7.2 1.3 11.4ENE 7.2 7.7 E STEEP 5.4
2024-07-22 03:40 pm 7.9 1.3 12.9ESE 7.9 7.1 E STEEP 5.6
2024-07-22 03:10 pm 7.9 0.7 12.9SSE 7.5 6.7 EVERY_STEEP 5.6
2024-07-22 02:40 pm 7.2 0.0-- 7.2 7.1 E STEEP 5.5
2024-07-22 02:10 pm 7.5 0.0-- 7.5 7.1 E STEEP 5.6
2024-07-22 01:40 pm 8.2 1.6 12.9 S 8.2 7.7 E STEEP 5.8
2024-07-22 01:10 pm 8.2 0.0-- 8.2 7.1 E STEEP 5.6
2024-07-22 12:40 pm 7.9 0.0-- 7.9 7.7 E STEEP 5.5
2024-07-22 12:10 pm 8.2 0.0-- 8.2 7.7 E STEEP 5.7
2024-07-22 11:40 am 8.2 0.0-- 8.2 8.3 E STEEP 5.7
2024-07-22 11:10 am 8.5 0.0-- 8.5 8.3 E STEEP 5.7
2024-07-22 10:40 am 8.5 0.0-- 8.5 7.7 E STEEP 5.7
2024-07-22 10:10 am 8.5 0.0-- 8.5 7.7 E STEEP 5.9
2024-07-22 09:40 am 7.5 3.6 8.3 E 6.6 6.2 E STEEP 5.5
2024-07-22 09:10 am 8.5 0.0-- 8.5 7.7 E STEEP 5.7
2024-07-22 08:40 am 8.2 1.0 21.1WNW 8.2 6.7 EVERY_STEEP 5.6
2024-07-22 08:10 am 8.2 2.0 14.8 N 7.9 7.7 E STEEP 5.6
2024-07-22 07:40 am 8.9 1.3 13.8 SE 8.9 8.3 E STEEP 5.9
2024-07-22 07:10 am 8.2 5.9 7.7 E 5.6 5.3 E STEEP 5.7
2024-07-22 06:40 am 7.9 0.0-- 7.9 8.3 E STEEP 5.6
2024-07-22 06:10 am 8.5 2.6 12.9ESE 8.2 8.3 E STEEP 5.9
2024-07-22 05:40 am 8.5 0.0-- 8.5 7.1 EVERY_STEEP 5.7
2024-07-22 05:10 am 8.9 0.0-- 8.9 8.3 E STEEP 5.8
2024-07-22 04:40 am 8.9 0.0-- 8.9 7.7 E STEEP 5.8
2024-07-22 04:10 am 8.5 0.0-- 8.5 7.7 E STEEP 5.8
2024-07-22 03:40 am 8.9 2.6 13.8NNE 8.5 7.7 E STEEP 5.8
2024-07-22 03:10 am 8.5 1.0 13.8 E 8.5 7.7 ESE STEEP 5.8
2024-07-22 02:40 am 8.9 2.0 13.8 E 8.5 8.3 E STEEP 5.8
2024-07-22 02:10 am 7.9 0.0-- 7.9 6.7 EVERY_STEEP 5.6
2024-07-22 01:40 am 8.2 0.0-- 8.2 7.7 ESE STEEP 5.7
2024-07-22 01:10 am 9.2 1.0 13.8 SE 9.2 8.3 E STEEP 5.8
2024-07-22 12:40 am 8.9 0.0-- 8.9 8.3 E STEEP 5.8
2024-07-22 12:10 am 8.5 0.0-- 8.5 8.3 E STEEP 5.8
2024-07-21 11:40 pm 8.9 0.0-- 8.9 7.7 E STEEP 6.0
2024-07-21 11:10 pm 9.8 0.0-- 9.8 8.3 ESE STEEP 6.1
2024-07-21 10:40 pm 8.2 0.0-- 8.2 7.1 ESE STEEP 5.6
2024-07-21 10:10 pm 8.9 0.0-- 8.9 7.7 ESE STEEP 5.9

Plot of wave energy versus frequency (and period)